Flag for United Kingdom Weather past 2 weeks in Carlisle, England, United Kingdom

Now
75 °F

Scattered clouds.


Feels Like: 77 °F
Forecast: 54 / 79 °F
Wind: 8 mph from East

Location: Carlisle Airport

Current Time: Jul 22, 2014 at 6:52:05 PM

Latest Report: Jul 22, 2014 at 5:50 PM


Visibility: N/A

Pressure: 30.21 "Hg

Humidity: 61%

Dew point: 61 °F

Location of CarlisleLocation

Historic Weather in Carlisle — Graph

°F

Carlisle temperature yesterday

Past Weeks' High & Low Weather Summary

 TemperatureHumidityPressure
High79 °F (Jul 22, 3:50 PM)94% (Jul 8, 9:20 AM)30.27 "Hg (Jul 8, 9:20 AM)
Low54 °F (Jul 8, 9:20 AM)46% (Jul 9, 1:50 PM)29.71 "Hg (Jul 13, 9:20 AM)
Average65 °F71%30.01 "Hg
* Reported Jul 7 5:20 PM — Jul 22 5:50 PM, Carlisle, Weather by CustomWeather, © 2014

Note: Actual official high and low records may vary slightly from our data, if they occured in-between our weather recording intervals... More about our weather records

Advertising

Carlisle weather history for previous 24 hours

 ConditionsComfort  
Time TempWeatherWind HumidityBarometerVisibility
5:50 PM
Jul 22
75 °FScattered clouds.8 mph61%30.21 "HgN/A
5:20 PM79 °FScattered clouds.3 mph51%30.21 "HgN/A
4:50 PM79 °FScattered clouds.2 mph48%30.24 "HgN/A
4:20 PM79 °FScattered clouds.5 mph51%30.24 "HgN/A
3:50 PM79 °FScattered clouds.1 mph51%30.24 "HgN/A
3:20 PM77 °FScattered clouds.3 mph54%30.24 "HgN/A
2:50 PM77 °FScattered clouds.1 mph57%30.24 "HgN/A
2:20 PM75 °FScattered clouds.3 mph57%30.24 "HgN/A
1:50 PM73 °FScattered clouds.2 mph57%30.24 "HgN/A
1:20 PM75 °FScattered clouds.1 mph57%30.24 "HgN/A
12:50 PM72 °FScattered clouds.2 mph65%30.24 "HgN/A
12:20 PM73 °FScattered clouds.1 mph61%30.27 "HgN/A
11:50 AM72 °FPassing clouds.2 mph65%30.24 "HgN/A
11:20 AM70 °FPassing clouds.3 mph69%30.24 "HgN/A
10:50 AM70 °FPassing clouds.1 mph64%30.24 "HgN/A
10:20 AM68 °FPassing clouds.3 mph73%30.24 "HgN/A
9:50 AM66 °FPassing clouds.2 mph73%30.24 "HgN/A
9:20 AM66 °FPassing clouds.1 mph78%30.24 "HgN/A
8:50 AM66 °FPassing clouds.No wind73%30.24 "HgN/A
Weather by CustomWeather, © 2014

See weather overviewHow to use our weather pages